[[{"header":{"parameterUnit":"m.s-1","parameterCategory":1,"la1":30.2991,"la2":30.254,"lo1":-89.0895,"lo2":-89.0444,"dy":0.0017,"dx":0.0017,"nx":28,"ny":28,"refTime":"2026-02-07T03:00:00:Z","depth":0,"parameterNumber":2,"parameterNumberName":"U-component_of_WINDS"},"data":[0,0,0,0,0,0,0,0,0,0,0,0,0,0,0,0,0,0,0,0,0,0,0,0,0,0,0,0,0,0,0,0,0,0,0,0,0,0,0,0,0,0,0,0,0,0,0,0,0,0,0,0,0,0,0,0,0,0,-1.1183,-1.1183,0,-1.1164,-1.1164,-1.1164,-1.1172,-1.1172,-1.1172,-1.1173,-1.1153,-1.1152,-1.1151,0,0,0,0,0,0,0,0,0,0,0,0,0,-1.1227,-1.1226,-1.1183,-1.1183,-1.1183,-1.1164,-1.1164,-1.1164,-1.1171,-1.1172,-1.1173,-1.1173,-1.1153,-1.1152,-1.1151,0,0,0,0,0,0,0,0,0,0,0,0,0,-1.1208,-1.1226,-1.1183,-1.1185,-1.1184,-1.1164,-1.1164,-1.1164,-1.1171,-1.1172,-1.1173,-1.1173,-1.1154,-1.1152,-1.1151,-1.1128,0,0,-1.1147,-1.1146,0,0,0,0,0,0,0,0,-1.1209,-1.1206,-1.1185,-1.1184,-1.1184,-1.1171,-1.1172,-1.1152,-1.1171,-1.1176,-1.1173,-1.1174,-1.1158,-1.1157,-1.1152,-1.1128,-1.1127,-1.1146,-1.1146,-1.1145,-1.1145,0,0,0,0,0,0,0,-1.121,-1.1207,-1.1176,-1.1184,-1.1184,-1.1186,-1.1184,-1.1168,-1.1164,-1.1176,-1.1176,-1.1174,-1.1158,-1.1153,-1.1151,-1.1126,-1.1146,-1.1145,-1.1144,-1.1144,-1.1082,-1.1082,0,0,0,0,0,0,-1.1211,-1.1208,-1.1176,-1.1175,-1.1198,-1.1185,-1.1182,-1.1175,-1.1164,-1.1163,-1.1174,-1.1175,-1.1155,-1.1153,-1.115,-1.1123,-1.1145,-1.1144,-1.1143,-1.1083,-1.1082,-1.1081,0,0,0,0,0,0,-1.1212,-1.1209,-1.1177,-1.1192,-1.1188,-1.1183,-1.1174,-1.1174,-1.1168,-1.1162,-1.1161,-1.1169,-1.1155,-1.1153,-1.1134,-1.1122,-1.1143,-1.1142,-1.1084,-1.1083,-1.1082,-1.1067,0,0,0,0,0,0,-1.1214,-1.1209,-1.12,-1.1192,-1.1187,-1.1161,-1.1174,-1.1173,-1.1166,-1.1167,-1.1157,-1.1156,-1.1156,-1.1136,-1.1132,-1.112,-1.1141,-1.1085,-1.1083,-1.1082,-1.1068,-1.1066,-1.1063,0,0,0,0,0,-1.1215,-1.1197,-1.12,-1.1196,-1.1176,-1.116,-1.1157,-1.1157,-1.1165,-1.1156,-1.1152,-1.1157,-1.1124,-1.1134,-1.113,-1.1117,-1.1086,-1.1084,-1.1082,-1.107,-1.1066,-1.1063,0,0,0,0,0,0,-1.1204,-1.1196,-1.1199,-1.1177,-1.1169,-1.1161,-1.115,-1.1153,-1.1143,-1.1144,-1.1145,-1.1142,-1.1123,-1.1119,-1.1129,-1.1095,-1.1106,-1.1103,-1.1098,-1.1094,-1.1092,-1.1092,-1.1139,0,0,0,0,0,-1.12,-1.1187,-1.1181,-1.1162,-1.1158,-1.1155,-1.1148,-1.1148,-1.114,-1.1136,-1.1131,-1.1123,-1.1111,-1.1103,-1.1091,-1.1069,-1.1066,-1.1058,-1.1055,-1.1053,-1.105,-1.1037,-1.1033,-1.1076,-1.1076,-1.1076,0,0,-1.119,-1.1183,-1.1175,-1.116,-1.1154,-1.114,-1.1152,-1.1138,-1.1128,-1.1134,-1.1116,-1.1112,-1.1103,-1.1081,-1.1072,-1.1077,-1.1038,-1.1051,-1.1049,-1.1047,-1.1035,-1.1031,-1.1027,-1.1074,-1.1075,-1.1075,0,0,-1.1164,-1.1159,-1.1142,-1.1136,-1.1126,-1.1124,-1.112,-1.1112,-1.1109,-1.1091,-1.1095,-1.1084,-1.1063,-1.1056,-1.105,-1.1022,-1.1025,-1.1018,-1.1003,-1.099,-1.0987,-1.0984,-1.0972,-1.0969,-1.1016,-1.1016,-1.1016,0,-1.1152,-1.1133,-1.1133,-1.1118,-1.1111,-1.1117,-1.11,-1.1094,-1.1081,-1.1076,-1.1082,-1.1056,-1.1051,-1.1027,-1.102,-1.1016,-1.1011,-1.1018,-1.0987,-1.0984,-1.0981,-1.0971,-1.0967,-1.1015,-1.1015,-1.1015,-1.1015,0,-1.1118,-1.1105,-1.1093,-1.108,-1.1071,-1.1056,-1.1054,-1.1045,-1.1047,-1.1044,-1.1025,-1.1019,-1.1005,-1.1,-1.1002,-1.0977,-1.0981,-1.0987,-1.0998,-1.0976,-1.0966,-1.0962,-1.1014,-1.1014,-1.1014,-1.1014,0,0,-1.1084,-1.1072,-1.1068,-1.1062,-1.1052,-1.1041,-1.1026,-1.1013,-1.1005,-1.0996,-1.0983,-1.0965,-1.0971,-1.0964,-1.0965,-1.0954,-1.0931,-1.0962,-1.0961,-1.0955,-1.0902,-1.0896,-1.0891,-1.0934,-1.0933,-1.0932,-1.0902,0,-1.1057,-1.1029,-1.1029,-1.1004,-1.0991,-1.0996,-1.0983,-1.0975,-1.0972,-1.0961,-1.0958,-1.0945,-1.0954,-1.095,-1.0939,-1.0936,-1.092,-1.0938,-1.092,-1.0919,-1.092,-1.0886,-1.088,-1.0851,-1.0898,-1.0898,-1.0897,0,-1.1021,-1.101,-1.0983,-1.0975,-1.0969,-1.0957,-1.0945,-1.0934,-1.0926,-1.0924,-1.0917,-1.0919,-1.0903,-1.0916,-1.0894,-1.0906,-1.0899,-1.0896,-1.0895,-1.0892,-1.0906,-1.088,-1.0843,-1.0838,-1.0891,-1.0892,-1.0892,0,-1.0996,-1.0976,-1.0957,-1.0952,-1.0942,-1.0933,-1.0929,-1.0921,-1.0913,-1.0903,-1.0897,-1.0886,-1.0879,-1.087,-1.0869,-1.0879,-1.0846,-1.0859,-1.0844,-1.0844,-1.0835,-1.0835,-1.0794,-1.0834,-1.0834,-1.0834,-1.0834,0,-1.0965,-1.0948,-1.0946,-1.0934,-1.0915,-1.0916,-1.0897,-1.0893,-1.0886,-1.0874,-1.0879,-1.0867,-1.0867,-1.0855,-1.0855,-1.0835,-1.0833,-1.0831,-1.0831,-1.0829,-1.0829,-1.0823,-1.0825,-1.0833,-1.0833,-1.0833,-1.0833,0,-1.0934,-1.0932,-1.0912,-1.0904,-1.0902,-1.0888,-1.0881,-1.087,-1.0868,-1.0852,-1.0848,-1.0845,-1.0831,-1.083,-1.0813,-1.0813,-1.0789,-1.0792,-1.0792,-1.0792,-1.0776,-1.0777,-1.0728,-1.0721,-1.0767,-1.0766,-1.0766,0,-1.0913,-1.09,-1.0891,-1.0882,-1.0877,-1.0864,-1.0856,-1.0857,-1.0848,-1.0837,-1.0827,-1.0814,-1.0802,-1.078,-1.0776,-1.0763,-1.0765,-1.0749,-1.0763,-1.0762,-1.0763,-1.0763,-1.0761,-1.0745,-1.0745,-1.0744,-1.0744,0,-1.0875,-1.0875,-1.0863,-1.0851,-1.0841,-1.0831,-1.0822,-1.0815,-1.0815,-1.0805,-1.0791,-1.0782,-1.0766,-1.0752,-1.074,-1.0735,-1.0739,-1.074,-1.0735,-1.0733,-1.0733,-1.0731,-1.0783,-1.074,-1.0741,-1.0741,-1.0741,-1.0741,-1.0847,-1.0836,-1.0827,-1.0814,-1.0807,-1.0798,-1.0787,-1.0784,-1.0772,-1.0758,-1.0759,-1.0743,-1.0735,-1.0719,-1.0713,-1.0701,-1.0706,-1.07,-1.0698,-1.0696,-1.0694,-1.0736,-1.0699,-1.0699,-1.0699,-1.0699,-1.0699,0,-1.0808,-1.0803,-1.0791,-1.0778,-1.0767,-1.0773,-1.0763,-1.0754,-1.0739,-1.0731,-1.072,-1.0704,-1.069,-1.0686,-1.0673,-1.0663,-1.0665,-1.0659,-1.0659,-1.0658,-1.069,-1.0695,-1.0658,-1.0658,-1.0658,-1.0658,-1.0658,-1.0658,-1.0787,-1.0767,-1.0766,-1.0742,-1.0738,-1.0721,-1.0715,-1.0707,-1.0701,-1.0682,-1.067,-1.0668,-1.0661,-1.0647,-1.0635,-1.0634,-1.0628,-1.0622,-1.0622,-1.0652,-1.0656,-1.066,-1.0664,-1.0621,-1.0621,-1.059,-1.059,-1.059]},{"header":{"parameterUnit":"m.s-1","parameterCategory":1,"la1":30.2991,"la2":30.254,"lo1":-89.0895,"lo2":-89.0444,"dy":0.0017,"dx":0.0017,"nx":28,"ny":28,"refTime":"2026-02-07T03:00:00:Z","depth":0,"parameterNumber":3,"parameterNumberName":"V-component_of_WINDS"},"data":[0,0,0,0,0,0,0,0,0,0,0,0,0,0,0,0,0,0,0,0,0,0,0,0,0,0,0,0,0,0,0,0,0,0,0,0,0,0,0,0,0,0,0,0,0,0,0,0,0,0,0,0,0,0,0,0,0,0,-1.6745,-1.6746,0,-1.6847,-1.6848,-1.6849,-1.6929,-1.693,-1.693,-1.6931,-1.7033,-1.7035,-1.7037,0,0,0,0,0,0,0,0,0,0,0,0,0,-1.6618,-1.6619,-1.6745,-1.6746,-1.6748,-1.6847,-1.6848,-1.685,-1.6929,-1.693,-1.6931,-1.6931,-1.7033,-1.7035,-1.7037,0,0,0,0,0,0,0,0,0,0,0,0,0,-1.6691,-1.662,-1.6745,-1.6799,-1.6805,-1.6847,-1.6848,-1.685,-1.6929,-1.693,-1.6931,-1.6932,-1.7032,-1.7035,-1.7038,-1.7033,0,0,-1.7047,-1.7048,0,0,0,0,0,0,0,0,-1.6687,-1.6696,-1.679,-1.6795,-1.6802,-1.6877,-1.6841,-1.6911,-1.6928,-1.6881,-1.6931,-1.6932,-1.698,-1.6987,-1.7004,-1.7038,-1.7042,-1.7047,-1.7049,-1.705,-1.7051,0,0,0,0,0,0,0,-1.6682,-1.6692,-1.6785,-1.6791,-1.6798,-1.6818,-1.683,-1.6855,-1.6923,-1.6886,-1.6892,-1.6903,-1.6984,-1.7001,-1.7007,-1.7044,-1.7047,-1.705,-1.7051,-1.7053,-1.708,-1.7079,0,0,0,0,0,0,-1.6669,-1.6687,-1.6782,-1.6788,-1.6746,-1.6819,-1.6833,-1.6851,-1.6923,-1.6935,-1.6902,-1.6906,-1.6995,-1.7003,-1.7011,-1.7011,-1.705,-1.7053,-1.7055,-1.7081,-1.708,-1.7079,0,0,0,0,0,0,-1.6666,-1.6676,-1.6778,-1.674,-1.6754,-1.682,-1.6841,-1.6853,-1.687,-1.6935,-1.6947,-1.6907,-1.6996,-1.7006,-1.7027,-1.7015,-1.7054,-1.7057,-1.7083,-1.7081,-1.708,-1.7009,0,0,0,0,0,0,-1.6662,-1.6675,-1.6674,-1.6739,-1.6756,-1.6793,-1.684,-1.6854,-1.6875,-1.6882,-1.6943,-1.6954,-1.6998,-1.7022,-1.703,-1.702,-1.7059,-1.7084,-1.7082,-1.708,-1.7013,-1.7006,-1.6999,0,0,0,0,0,-1.6657,-1.6649,-1.6673,-1.6684,-1.6756,-1.6792,-1.6801,-1.6853,-1.6874,-1.6873,-1.6916,-1.6952,-1.7016,-1.7024,-1.7033,-1.7024,-1.7085,-1.7083,-1.708,-1.7016,-1.7007,-1.6999,0,0,0,0,0,0,-1.6579,-1.6658,-1.6686,-1.6699,-1.6738,-1.6805,-1.6806,-1.6841,-1.6874,-1.6879,-1.6941,-1.6954,-1.6968,-1.6998,-1.7006,-1.7024,-1.7055,-1.7054,-1.7003,-1.6995,-1.6988,-1.698,-1.7062,0,0,0,0,0,-1.6563,-1.6587,-1.6655,-1.666,-1.6678,-1.6739,-1.6756,-1.6793,-1.6835,-1.6852,-1.6895,-1.6935,-1.6964,-1.6981,-1.7011,-1.7019,-1.7033,-1.7017,-1.701,-1.7004,-1.7002,-1.7009,-1.7002,-1.7071,-1.7071,-1.7071,0,0,-1.6531,-1.6578,-1.6588,-1.6645,-1.668,-1.6702,-1.6752,-1.6773,-1.679,-1.6855,-1.6877,-1.6911,-1.6959,-1.6973,-1.6982,-1.6999,-1.6987,-1.7001,-1.6995,-1.6997,-1.7006,-1.6999,-1.6993,-1.707,-1.707,-1.707,0,0,-1.6484,-1.6521,-1.653,-1.6565,-1.6617,-1.6658,-1.666,-1.6722,-1.6747,-1.6771,-1.682,-1.6842,-1.689,-1.6923,-1.6946,-1.6913,-1.6949,-1.6922,-1.6885,-1.6891,-1.6885,-1.6881,-1.6869,-1.6864,-1.692,-1.692,-1.692,0,-1.6437,-1.6473,-1.653,-1.6549,-1.6573,-1.6634,-1.6644,-1.6674,-1.6733,-1.6748,-1.6767,-1.683,-1.6867,-1.689,-1.6882,-1.6899,-1.6903,-1.6914,-1.6881,-1.6878,-1.6874,-1.6864,-1.6859,-1.6916,-1.6917,-1.6917,-1.6917,0,-1.6413,-1.6437,-1.6438,-1.6495,-1.6519,-1.6533,-1.6592,-1.661,-1.6645,-1.6683,-1.6707,-1.6754,-1.6795,-1.6804,-1.6837,-1.6832,-1.6841,-1.687,-1.6902,-1.6863,-1.6854,-1.6851,-1.6911,-1.6912,-1.6913,-1.6914,0,0,-1.6316,-1.6407,-1.6406,-1.6433,-1.6497,-1.6517,-1.6534,-1.6576,-1.6589,-1.6629,-1.6645,-1.6686,-1.6713,-1.6739,-1.6777,-1.6783,-1.6754,-1.6811,-1.6813,-1.6799,-1.6751,-1.6728,-1.6723,-1.6779,-1.6779,-1.6778,-1.6747,0,-1.6278,-1.6313,-1.6366,-1.6383,-1.6407,-1.6467,-1.6482,-1.6523,-1.656,-1.6585,-1.6626,-1.6654,-1.6689,-1.6705,-1.6713,-1.6756,-1.6746,-1.6759,-1.6794,-1.6794,-1.6778,-1.6718,-1.6694,-1.6662,-1.6744,-1.6744,-1.6743,0,-1.6238,-1.6276,-1.6295,-1.6359,-1.6371,-1.6383,-1.6427,-1.645,-1.6498,-1.6525,-1.6555,-1.6597,-1.6619,-1.6649,-1.668,-1.6688,-1.6705,-1.6729,-1.6729,-1.6733,-1.6765,-1.672,-1.6654,-1.6648,-1.6739,-1.6739,-1.6739,0,-1.6165,-1.6221,-1.624,-1.6262,-1.6336,-1.6344,-1.6375,-1.6424,-1.6446,-1.6484,-1.6499,-1.6539,-1.656,-1.6589,-1.6641,-1.6659,-1.6666,-1.6701,-1.6688,-1.6687,-1.6686,-1.6685,-1.662,-1.6699,-1.6699,-1.6699,-1.6699,0,-1.6116,-1.6126,-1.6209,-1.622,-1.6233,-1.6295,-1.6306,-1.6343,-1.6386,-1.6406,-1.6461,-1.6478,-1.6546,-1.6572,-1.6613,-1.6632,-1.6641,-1.6663,-1.6673,-1.6657,-1.6654,-1.6669,-1.6672,-1.6698,-1.6698,-1.6698,-1.6698,0,-1.6036,-1.6092,-1.6117,-1.6187,-1.6205,-1.6211,-1.627,-1.6284,-1.6326,-1.635,-1.636,-1.6424,-1.6457,-1.6513,-1.6561,-1.6589,-1.66,-1.6619,-1.6584,-1.659,-1.6575,-1.6575,-1.6516,-1.6511,-1.6593,-1.6592,-1.6591,0,-1.6,-1.601,-1.6081,-1.6099,-1.6129,-1.6156,-1.618,-1.6242,-1.6264,-1.632,-1.6327,-1.6365,-1.6398,-1.6448,-1.6499,-1.6537,-1.6556,-1.6533,-1.6562,-1.6546,-1.6555,-1.6553,-1.6555,-1.6525,-1.6524,-1.6523,-1.6522,0,-1.5931,-1.5959,-1.5991,-1.6034,-1.6061,-1.6097,-1.6135,-1.6147,-1.6217,-1.6239,-1.6275,-1.6301,-1.6352,-1.6388,-1.6434,-1.6466,-1.6505,-1.6513,-1.6513,-1.6495,-1.6475,-1.6485,-1.6565,-1.6514,-1.6515,-1.6515,-1.6516,-1.6516,-1.5872,-1.5883,-1.5936,-1.597,-1.6006,-1.6042,-1.6059,-1.6103,-1.6134,-1.6181,-1.6216,-1.6248,-1.6298,-1.6364,-1.6394,-1.642,-1.6438,-1.6437,-1.6436,-1.6434,-1.6428,-1.6472,-1.6429,-1.6429,-1.6429,-1.643,-1.643,0,-1.5805,-1.5842,-1.5874,-1.5927,-1.5954,-1.5992,-1.6037,-1.6057,-1.6086,-1.6129,-1.6162,-1.6203,-1.6239,-1.6294,-1.6335,-1.6346,-1.6365,-1.6354,-1.6353,-1.636,-1.641,-1.6407,-1.6338,-1.6338,-1.6338,-1.6338,-1.6338,-1.6338,-1.5773,-1.5794,-1.5829,-1.5869,-1.5907,-1.594,-1.5963,-1.5996,-1.6031,-1.6075,-1.6106,-1.6143,-1.6191,-1.6236,-1.6271,-1.6287,-1.6299,-1.6282,-1.6302,-1.6348,-1.6356,-1.6364,-1.6361,-1.6284,-1.6284,-1.625,-1.625,-1.625]}]]